カタログに戻る

STARLINK-3844

運用中通信VLEO
NORAD 52705·PAYLOAD·🇺🇸 United States

打ち上げ May 18, 2022 から Cape Canaveral Space Force Station

Loading…

次のパス (今後24時間)

TLE

最新Source: CelesTrak SupGP

元期: Sep 14, 2026, 22:19 UTC

1 52705C 22053BB  26257.93034722 -.00035151  00000+0 -10057-2 0  2571
2 52705  53.1581 351.6575 0001163  91.8903 124.6004 15.35416178    16

AllMySatでSTARLINK-3844をリアルタイム追跡

Download on the App Store